Morrisville, VT

2:40 AM EDT on October 23, 2019 (GMT -0400)
Morrisville Stowe State

Weather History for KMVL - August, 2019

Change the Weather History Date:

Monday, August 5, 2019

  Actual Average Record
Temperature  
Mean Temperature 61 °F 67 °F  
Max Temperature 79 °F 79 °F 89 °F (2018)
Min Temperature 43 °F 55 °F 43 °F (2019)
Degree Days  
Heating Degree Days 4 1  
Month to date heating degree days 8 5  
Since 1 June heating degree days 161 158  
Since 1 July heating degree days 18 35  
Cooling Degree Days 0 3  
Month to date cooling degree days 1 15  
Year to date cooling degree days 183 183  
Since 1 June cooling degree days 182 175  
Growing Degree Days 11 (Base 50)    
Moisture  
Dew Point 48 °F    
Average Humidity 67    
Maximum Humidity 100    
Minimum Humidity 33    
Precipitation  
Precipitation 0.00 in 0.14 in 0.79 in (2017)
Month to date precipitation T 0.75  
Year to date precipitation 23.44 20.48  
Sea Level Pressure  
Sea Level Pressure 30.01 in    
Wind  
Wind Speed 2 mph (SSW)    
Max Wind Speed 12 mph    
Max Gust Speed 15 mph    
Visibility 8 miles    
Events      
T = Trace of Precipitation, MM = Missing Value Source: NWS Daily Summary

Daily Weather History Graph

Daily Weather History Graph

Search for Another Location

Airport or City:

Astronomy

Aug. 05, 2019 Rise Set
Actual Time 5:41 AM EDT 8:10 PM EDT
Civil Twilight 5:08 AM EDT 8:43 PM EDT
Nautical Twilight 4:27 AM EDT 9:24 PM EDT
Astronomical Twilight 3:40 AM EDT 10:10 PM EDT
Moon 11:06 AM EDT (8/5) 11:08 PM EDT (8/5)
Length of Visible Light 15h 35m
Length of Day
14h 29m
Waxing Crescent, 28% of the Moon is Illuminated
Aug 5
Waxing Crescent
Aug 7
First Quarter
Aug 15
Full
Aug 23
Last Quarter
Aug 30
New

Hourly Weather History & Observations

Time (EDT) Temp. Windchill Dew Point Humidity Pressure Visibility Wind Dir Wind Speed Gust Speed Precip Events Conditions
12:54 AM 48.0 °F - 46.9 °F 96% 30.01 in 10.0 mi Calm Calm - N/A   Clear
1:54 AM 46.9 °F - 45.0 °F 93% 30.01 in 10.0 mi Calm Calm - N/A   Clear
2:54 AM 46.0 °F - 44.1 °F 93% 30.01 in 10.0 mi Calm Calm - N/A   Clear
3:54 AM 45.0 °F - 43.0 °F 93% 30.02 in 10.0 mi Calm Calm - N/A   Clear
4:14 AM 44.1 °F - 42.1 °F 93% 30.02 in 2.5 mi Calm Calm - N/A   Partly Cloudy
4:24 AM 44.1 °F 42.5 °F 43.0 °F 96% 30.02 in 8.0 mi SW 3.5 mph - N/A   Clear
4:54 AM 43.0 °F 41.3 °F 42.1 °F 97% 30.03 in 3.0 mi South 3.5 mph - N/A   Clear
5:20 AM 44.1 °F - 42.1 °F 93% 30.03 in 10.0 mi Calm Calm - N/A   Partly Cloudy
5:54 AM 45.0 °F - 43.0 °F 93% 30.04 in 6.0 mi Calm Calm - N/A   Mostly Cloudy
6:33 AM 45.0 °F - 44.1 °F 97% 30.03 in 1.8 mi Calm Calm - N/A   Overcast
6:38 AM 46.0 °F - 44.1 °F 93% 30.03 in 0.8 mi Calm Calm - N/A   Overcast
6:48 AM 46.4 °F - 44.6 °F 93% 30.03 in 1.2 mi Calm Calm - N/A   Overcast
6:54 AM 46.0 °F - 45.0 °F 96% 30.04 in 1.8 mi Calm Calm - N/A   Overcast
7:11 AM 46.0 °F - 46.0 °F 100% 30.03 in 1.0 mi Calm Calm - N/A   Overcast
7:17 AM 46.9 °F - 46.0 °F 97% 30.03 in 2.0 mi Calm Calm - N/A   Overcast
7:25 AM 48.0 °F - 46.9 °F 96% 30.04 in 6.0 mi Calm Calm - N/A   Mostly Cloudy
7:36 AM 50.0 °F - 46.9 °F 89% 30.03 in 10.0 mi Calm Calm - N/A   Scattered Clouds
7:54 AM 51.1 °F - 48.0 °F 89% 30.04 in 10.0 mi Calm Calm - N/A   Clear
8:54 AM 59.0 °F - 52.0 °F 78% 30.04 in 10.0 mi East 3.5 mph - N/A   Clear
9:54 AM 66.0 °F - 50.0 °F 56% 30.04 in 10.0 mi Calm Calm - N/A   Clear
10:54 AM 70.0 °F - 48.9 °F 47% 30.03 in 10.0 mi Calm Calm - N/A   Clear
11:54 AM 73.0 °F - 51.1 °F 46% 30.02 in 10.0 mi North 4.6 mph - N/A   Partly Cloudy
12:54 PM 73.9 °F - 50.0 °F 43% 30.01 in 10.0 mi SSE 3.5 mph - N/A   Partly Cloudy
1:54 PM 75.9 °F - 52.0 °F 43% 29.98 in 10.0 mi WNW 9.2 mph - N/A   Clear
2:54 PM 77.0 °F - 46.9 °F 34% 29.98 in 10.0 mi Variable 3.5 mph - N/A   Clear
3:54 PM 79.0 °F - 52.0 °F 39% 29.97 in 10.0 mi Variable 5.8 mph - N/A   Clear
4:54 PM 77.0 °F - 51.1 °F 40% 29.96 in 10.0 mi Variable 4.6 mph - N/A   Clear
5:54 PM 77.0 °F - 53.1 °F 43% 29.94 in 10.0 mi SW 3.5 mph - N/A   Clear
6:54 PM 73.9 °F - 55.0 °F 52% 29.94 in 10.0 mi Calm Calm - N/A   Clear
7:54 PM 66.0 °F - 59.0 °F 78% 29.94 in 10.0 mi Calm Calm - N/A   Clear
8:54 PM 61.0 °F - 55.9 °F 83% 29.94 in 10.0 mi Calm Calm - N/A   Clear
9:54 PM 59.0 °F - 55.0 °F 87% 29.95 in 10.0 mi Calm Calm - N/A   Clear
11:54 PM 55.0 °F - 53.1 °F 93% 29.94 in 10.0 mi Calm Calm - N/A   Clear